Location: Wanzleben
(52.0609°N, 11.4408°E)
Time: 11:08:08
(UTC+00:00)

Daily predictions for brighter satellites

Satellite Brightness Start Highest point End
(mag) Time Altitude Azimuth Time Altitude Azimuth Time Altitude Azimuth
USA 238 DEB 4.2 17:43:13 10° NW 17:50:10 53° NNE 17:57:24 10° ESE
USA 238 4.2 17:43:20 10° NW 17:50:16 53° NNE 17:57:29 10° ESE
NOSS 3-1 (C) 4.2 17:47:57 10° WSW 17:53:36 56° NNW 18:00:19 10° NE
Cosmos 2263 Rocket 2.4 17:51:35 10° S 17:56:55 50° ESE 18:02:19 10° NE
Meteor 2-9 Rocket 4.4 17:54:19 10° S 18:00:04 59° E 18:05:45 10° NNE
USA 102 3.8 17:55:25 10° SSE 18:02:00 89° ENE 18:04:33 10° NNW
SL-08 RB Rocket 4.2 17:57:46 10° SE 18:02:05 41° ENE 18:06:22 10° N
NOSS 2-3 (E) 4.5 17:58:36 10° WSW 18:02:59 59° NW 18:08:25 10° NE
Cosmos 1844 Rocket 4.1 18:01:55 10° SE 18:04:54 15° E 18:07:52 10° ENE
CZ-2C R/B 3.3 17:59:44 10° SSE 18:05:00 86° WSW 18:10:37 10° NNW
SJ 16-02 1.6 18:01:09 10° SSW 18:05:32 73° WNW 18:09:56 10° NNE
Cosmos 990 Rocket 3.9 18:00:46 10° SSW 18:05:52 71° ESE 18:11:01 10° NNE
Cosmos 2227 4.3 18:00:49 10° SSW 18:06:29 62° ESE 18:12:07 10° NE
ISS -1.6 18:05:59 10° SSE 18:07:08 11° SE 18:08:14 10° ESE
Cosmos 1464 Rocket 4.5 18:01:36 10° SSE 18:07:09 38° E 18:12:46 10° NNE
Abrixas rocket 3.0 18:06:33 10° SW 18:09:06 29° SSE 18:11:14 13° ESE
Cosmos 1943 3.5 18:03:32 10° NW 18:09:10 71° WSW 18:14:47 10° SSE
Okean 2 Rocket 3.9 18:06:51 10° SSE 18:10:44 29° E 18:14:37 10° NNE
SJ-11-01 4.4 18:06:36 10° SSE 18:11:19 88° WSW 18:16:04 10° NNW
NOSS 8 (F) 4.1 18:09:05 10° SW 18:12:13 65° SE 18:15:14 10° NE
Okean-O 4.2 18:09:31 10° SSW 18:13:40 39° W 18:17:51 10° NNW
Lacrosse 5 rocket 1.7 18:09:46 10° WSW 18:14:01 72° NNW 18:18:31 10° ENE
Ariane Rocket 3.2 18:11:52 10° SE 18:16:45 51° ENE 18:21:40 10° N
Cosmos 1437 3.2 18:14:08 10° NNW 18:17:06 59° W 18:20:03 10° S
NOSS 3-2 (A) 4.1 18:11:27 10° NW 18:18:38 70° NE 18:26:32 11° ESE
Meteor 1-21 4.4 18:14:15 10° NNW 18:19:53 77° W 18:25:28 10° S
USA 116 3.4 18:18:10 10° NNE 18:21:31 85° WNW 18:25:11 10° SSW
NOSS 2-2 (C) 4.1 18:18:33 10° S 18:21:32 26° ESE 18:24:47 10° ENE
Cosmos 1833 Rocket 4.4 18:17:56 10° NNW 18:21:57 19° NNE 18:25:57 10° ENE
Cosmos 2227 Rocket 4.2 18:18:15 10° W 18:23:09 29° NW 18:28:04 10° NNE
Cosmos 1300 Rocket 4.1 18:19:57 10° SSE 18:23:59 37° E 18:28:03 10° NNE
SPOT 3 Rocket 4.3 18:22:59 12° ESE 18:27:05 33° ENE 18:31:40 10° N
MetOp-A 4.4 18:23:25 10° SE 18:28:35 52° ENE 18:33:46 10° N
YAOGAN 1 4.2 18:25:17 10° SSW 18:29:17 36° W 18:33:19 10° NNW
HJ-1C 4.4 18:28:25 10° S 18:31:36 47° W 18:34:49 10° NNW
Cosmos 1867 3.8 18:27:27 10° NW 18:32:55 71° SW 18:38:20 10° SSE
Cosmos 1898 Rocket 3.6 18:27:49 10° SSW 18:33:00 81° WNW 18:38:13 10° NNE
CSL-04 Rocket 4.5 18:29:16 10° S 18:34:33 55° W 18:39:59 10° NNW
Cosmos 1891 Rocket 4.5 18:28:45 10° S 18:34:45 61° E 18:40:43 10° NNE
Cosmos 1536 Rocket 3.8 18:32:50 10° N 18:37:11 51° ENE 18:41:16 11° SSE
USA 234 4.0 18:35:19 10° ENE 18:40:51 28° SE 18:46:20 10° S
Cosmos 1626 3.7 18:40:14 10° NNE 18:42:50 18° ENE 18:43:18 17° ENE
Meteor 2-5 Rocket 4.4 18:39:26 10° N 18:44:38 37° ENE 18:48:05 19° ESE
DMSP B5D2-2 4.4 18:40:20 10° NNE 18:45:24 43° E 18:50:26 10° S
CREW DRAGON DEMO-1 DEB 2.7 18:43:36 10° W 18:46:39 85° S 18:47:59 30° E
Cosmos 1782 Rocket 4.4 18:45:56 10° SSW 18:50:16 54° WNW 18:54:39 10° N
Cosmos 1025 Rocket 3.0 18:46:49 10° N 18:51:13 87° ENE 18:55:37 10° S
Cosmos 1975 4.4 18:47:31 10° SW 18:51:22 40° WNW 18:55:15 10° N
CZ-4 R/B 4.3 18:48:36 10° SW 18:51:42 19° W 18:54:47 10° NW
Cosmos 2151 Rocket 3.7 18:47:30 10° S 18:51:49 51° E 18:56:11 10° NNE
USA 186 2.0 18:49:02 10° S 18:52:07 68° WSW 18:55:22 10° NNW
Cosmos 372 Rocket 4.0 18:46:59 10° S 18:52:07 59° ESE 18:57:16 10° NNE
NOSS 3-2 (C) 4.0 18:45:32 10° NW 18:52:45 72° NE 18:58:45 20° ESE
Cosmos 2150 Rocket 4.4 18:49:34 10° S 18:54:36 42° ESE 18:59:43 10° NE
Cosmos 1072 Rocket 4.5 18:51:27 10° S 18:57:42 87° E 19:04:05 10° N
Nadezhda 4 Rocket 3.9 18:51:45 10° N 18:57:55 78° ENE 19:04:02 10° SSE
Cosmos 1805 4.1 19:00:43 29° E 19:00:48 29° E 19:04:14 10° NNE
Cosmos 2082 Rocket 3.8 18:57:38 10° NNW 19:01:50 21° NNE 19:04:43 15° ENE
MOS 1 Rocket 3.7 18:58:00 10° N 19:02:31 62° WNW 19:06:48 10° SSW
OBJECT-B 0.8 19:01:23 35° SE 19:02:33 62° ENE 19:05:47 10° N
Cosmos 1937 Rocket 3.9 18:57:30 10° SW 19:02:44 65° WNW 19:07:56 10° NNE
Cosmos 2034 Rocket 4.0 18:57:37 10° S 19:03:55 68° E 19:10:14 10° NNE
Cosmos 1125 Rocket 4.0 19:00:49 10° SSE 19:05:36 36° ESE 19:10:26 10° NE
FREGAT/IRIS 2.8 19:05:31 26° S 19:06:42 55° WSW 19:09:17 10° NNW
Exosat Rocket 4.1 19:01:58 10° S 19:06:54 34° ESE 19:11:23 10° NE
Cosmos 1674 2.6 19:04:11 10° N 19:08:03 66° ENE 19:09:42 32° SSE
COSMOS 2406 4.0 19:04:36 10° NNW 19:09:51 36° NE 19:12:17 25° E
Meteor 1-24 Rocket 4.1 19:06:40 10° N 19:11:54 44° ENE 19:14:11 30° ESE
SL-14 R/B 4.0 19:12:29 10° N 19:16:04 33° ENE 19:16:09 33° ENE
Cosmos 1733 4.5 19:17:21 26° ENE 19:17:21 26° ENE 19:19:40 10° NNE
ERS-1 Rocket 4.3 19:17:24 21° ENE 19:18:17 22° ENE 19:22:08 10° N
NOSS 2-2 (E) 3.2 19:15:03 10° SW 19:18:37 86° NW 19:22:53 10° NE
Resurs 01 Rocket 1.7 19:19:16 37° SE 19:20:53 61° ENE 19:25:18 10° N
H-2A R/B 4.0 19:17:34 10° SSW 19:21:45 27° W 19:26:02 10° NW
CZ-2C R/B 2.7 19:17:25 10° NNE 19:22:58 88° W 19:28:34 10° SSW
ATLAS 2AS CENTAUR R/B 3.9 19:24:47 26° E 19:24:47 26° E 19:30:04 10° ENE
Lacrosse 4 Rocket 3.2 19:22:05 10° NNW 19:24:57 18° NNE 19:25:54 17° NE
SJ-6B 3.8 19:21:47 13° S 19:24:57 43° W 19:28:34 10° NNW
KORONAS-FOTON 3.8 19:21:44 10° NNW 19:25:41 84° W 19:27:14 36° S
Landsat 7 4.4 19:25:47 36° E 19:26:41 40° ENE 19:31:08 10° N
NOSS 2-2 (D) 3.1 19:23:31 10° SW 19:27:04 89° NW 19:31:14 10° NE
Cosmos 1048 Rocket 4.5 19:25:27 10° NNW 19:30:40 60° WSW 19:34:10 21° S
Cosmos 1766 3.6 19:33:40 47° ENE 19:33:40 47° ENE 19:36:59 10° NNE
CENTAUR R/B 3.2 19:25:42 10° NW 19:33:36 85° SW 19:38:32 30° SE
ATLAS CENTAUR R/B 3.9 19:31:44 10° NW 19:33:49 14° NNW 19:35:52 10° NNE
SPOT 1/Viking Rocket 4.1 19:33:46 37° E 19:34:45 41° ENE 19:39:36 10° N
Cosmos 1844 3.7 19:30:24 10° S 19:35:56 54° ESE 19:41:26 10° NE
IGS 5A 3.8 19:37:09 45° ENE 19:37:10 45° ENE 19:41:08 10° N
Cosmos 1634 Rocket 4.0 19:34:23 28° SSE 19:37:33 57° E 19:43:36 10° NNE
ARIANE 5 R/B 2.7 19:37:43 52° E 19:38:10 55° ENE 19:42:25 10° N
ATLAS 3B R/B 3.0 19:33:08 10° NW 19:39:48 55° NE 19:42:49 33° E
Cosmos 1269 Rocket 4.0 19:34:41 10° NNW 19:40:01 70° ENE 19:41:30 47° SE
Cosmos 2263 Rocket 3.6 19:35:51 10° WSW 19:41:02 38° NW 19:46:16 10° NNE
USA 238 DEB 4.2 19:34:19 10° NW 19:41:22 60° SW 19:45:38 26° SSE
USA 238 4.2 19:34:25 10° NW 19:41:28 60° SW 19:45:43 26° SSE
Cosmos 2285 Rocket 3.9 19:36:04 10° S 19:42:14 61° ESE 19:48:30 10° NNE
MetOp-B 4.1 19:41:10 43° SE 19:42:52 70° ENE 19:48:12 10° NNW
ISS -1.7 19:40:04 10° SW 19:41:14 19° SW 19:41:14 19° SW
Abrixas rocket 4.1 19:41:21 10° WSW 19:42:31 20° WSW 19:42:31 20° WSW
Cosmos 1844 Rocket 2.5 19:42:17 10° SSW 19:47:51 77° ESE 19:53:27 10° NNE
Spot 2 Rocket 3.6 19:48:07 52° ESE 19:48:52 57° ENE 19:53:50 10° N
Okean 1 Rocket 3.0 19:51:21 42° SSW 19:52:52 86° W 19:57:24 10° N
Cosmos 1340 Rocket 4.5 19:55:19 23° NE 19:55:19 23° NE 19:57:03 10° NNE
Lacrosse 5 rocket 2.5 19:49:28 10° WNW 19:53:41 44° N 19:55:13 32° NE
Cosmos 1092 Rocket 4.2 19:50:11 10° NNW 19:56:17 67° W 20:00:15 23° S
Meteor 1-15 Rocket 4.5 19:54:31 10° SSW 20:00:07 69° WNW 20:05:52 10° N
Cosmos 2026 Rocket 4.1 19:57:29 10° NNW 20:03:51 76° W 20:06:56 33° S
CZ-2C R/B 3.7 19:59:49 10° NNE 20:04:17 78° WNW 20:05:30 48° SSW
Meteor 2-19 Rocket 4.4 19:58:29 10° N 20:04:36 64° ENE 20:05:40 55° ESE
SPOT 3 Rocket 4.4 20:03:38 24° SSW 20:06:22 46° W 20:11:21 10° NNW
Cosmos 1833 Rocket 2.7 20:01:26 10° NNW 20:07:04 61° NE 20:07:46 56° E
NOSS 2-2 (C) 4.3 20:08:20 10° WSW 20:11:50 44° NNW 20:15:45 11° NE
Cosmos 2251 Rocket 4.1 20:07:32 10° NNW 20:12:42 44° NE 20:12:49 44° ENE
Cosmos 1626 3.2 20:14:46 10° NNW 20:17:51 43° WNW 20:17:51 43° WNW
Terra 2.7 20:19:12 37° NE 20:19:12 37° NE 20:22:52 10° N
Cosmos 1892 Rocket 3.8 20:16:10 10° NNW 20:20:06 67° NW 20:20:06 67° NW
Cosmos 2279 Rocket 3.9 20:20:51 62° SSE 20:21:49 74° E 20:28:06 10° NNE
Cosmos 2142 Rocket 4.4 20:21:19 52° S 20:23:01 85° E 20:29:18 10° N
USA 234 3.1 20:19:22 17° ENE 20:24:34 75° SSE 20:31:08 10° SW
CARTOSAT-1 4.3 20:29:30 47° N 20:29:30 47° N 20:32:42 10° N
OBJECT-B 3.9 20:34:35 10° W 20:35:18 11° W 20:36:08 10° WNW
SPOT 5 3.1 20:40:10 70° NNE 20:40:10 70° NNE 20:44:58 10° NNW
Cosmos 2082 Rocket 2.3 20:41:20 10° NNW 20:46:33 67° NNE 20:46:33 67° NNE
Okean 1-7 Rocket 4.4 20:42:54 10° NNW 20:46:41 50° WNW 20:46:41 50° WNW
COSMOS 2406 3.6 20:48:53 10° NW 20:54:20 54° WSW 20:54:20 54° WSW
ERS-1 Rocket 3.4 20:57:24 59° NW 20:57:24 59° NW 21:01:41 10° NNW
Resurs 01 Rocket 3.8 20:56:51 18° WSW 20:57:47 19° W 21:00:59 10° NW
Cosmos 2098 Rocket 4.2 20:55:53 10° NNW 21:03:07 70° W 21:03:50 65° SW
Lacrosse 4 Rocket 3.3 21:00:11 10° NW 21:02:11 28° NNW 21:02:11 28° NNW
Cosmos 2266 Rocket 3.9 20:59:45 10° NNW 21:05:35 76° WNW 21:05:35 76° WNW
Cosmos 1809 Rocket 4.5 21:02:45 10° N 21:08:28 76° N 21:08:28 76° N
Meteor 1-21 Rocket 4.5 21:04:02 10° NNW 21:09:09 68° NW 21:09:09 68° NW
Cosmos 1655 Rocket 4.3 21:06:00 10° NNW 21:12:07 58° W 21:12:30 57° WSW
ATLAS 2AS CENTAUR R/B 2.9 21:11:59 56° SSW 21:13:57 84° SE 21:21:50 10° NE
ATLAS CENTAUR R/B 4.1 21:12:18 10° NNW 21:13:40 13° N 21:13:40 13° N
Cosmos 2278 Rocket 3.5 21:22:33 32° NNE 21:22:33 32° NNE 21:25:31 10° NNE
CENTAUR R/B 4.4 21:17:00 10° WNW 21:23:45 30° WSW 21:25:44 27° SW
ATLAS 3B R/B 3.1 21:23:59 10° NW 21:30:03 51° WSW 21:30:03 51° WSW
Lacrosse 5 rocket 3.6 21:28:59 10° WNW 21:30:51 24° NW 21:30:51 24° NW
Cosmos 1833 Rocket 4.3 21:45:53 10° NW 21:49:28 26° W 21:49:28 26° W
Terra 3.8 21:58:07 24° NW 21:58:07 24° NW 22:00:33 10° NNW
USA 234 3.5 22:01:07 10° ENE 22:07:34 65° NNW 22:14:02 10° W
Cosmos 2082 Rocket 4.2 22:26:08 10° NW 22:28:23 19° WNW 22:28:23 19° WNW
Cosmos 1943 Rocket 4.2 22:35:45 21° NE 22:35:45 21° NE 22:37:34 10° NE
COSMOS 2455 4.1 22:35:52 35° NNE 22:35:52 35° NNE 22:39:13 10° NE
USA 229 DEB 4.4 22:29:45 10° NW 22:36:38 50° NNE 22:37:21 49° NE
USA 229 4.4 22:29:51 10° NW 22:36:44 50° NNE 22:37:28 48° NE
NOSS 3-4 (A) 4.4 22:41:29 42° NW 22:42:07 43° NNW 22:48:27 10° NE
NOSS 3-4 (C) 4.4 22:41:40 42° NW 22:42:13 43° NNW 22:48:33 10° NE
Cosmos 2369 Rocket 4.1 22:59:19 23° NE 22:59:19 23° NE 23:01:28 10° NE
CZ-4C R/B 3.7 23:02:01 33° NE 23:02:01 33° NE 23:05:35 10° NE
Cosmos 2278 Rocket 3.9 23:04:22 26° NW 23:04:36 27° NW 23:09:22 10° NNE
ATLAS 2AS CENTAUR R/B 3.9 22:59:09 14° W 23:05:44 45° NNW 23:13:04 10° NE
NOSS 3-1 (C) 4.2 23:23:04 10° NW 23:28:49 62° NW 23:28:49 62° NW
Cosmos 2227 Rocket 4.0 23:37:28 10° NNW 23:42:12 27° NE 23:43:30 24° ENE
USA 234 3.6 23:43:50 10° E 23:50:15 61° N 23:56:40 10° WNW
